Regional Weather Roundup
Issued by NWS Burlington, VT

Home | Current Version | Previous Version | Text Only | Print | Product List | Glossary On
Versions: 1 2 3 4 5 6 7 8 9 10 11 12 13 14 15 16 17 18 19 20 21 22 23 24 25 26 27 28 29 30 31 32 33 34 35 36 37 38 39 40 41 42 43 44 45 46 47 48 49 50
000
ASUS41 KBTV 281330
RWRBTV
VERMONT REGIONAL WEATHER ROUNDUP
NATIONAL WEATHER SERVICE BURLINGTON VT
900 AM EDT THU AUG 28 2014

NOTE: "FAIR" INDICATES FEW OR NO CLOUDS BELOW 12,000 FEET WITH NO
SIGNIFICANT WEATHER AND/OR OBSTRUCTIONS TO VISIBILITY.

* THESE REPORTS ARE NOT UNDER NWS QUALITY CONTROL AND/OR DO NOT
  REPORT WEATHER SUCH AS PRECIPITATION AND FOG.

VTZ001>019-281400-
_____VERMONT_____


CITY           SKY/WX    TMP DP  RH WIND       PRES   REMARKS
BURLINGTON     PTSUNNY   64  55  72 N9        29.93S
MONTPELIER     PTSUNNY   61  57  87 NW7       29.95S
MORRISVILLE    CLOUDY    63  55  75 NW8       29.94R
ST. JOHNSBURY*   N/A     59  56  89 MISG      29.89F
MIDDLEBURY*    PTSUNNY   66  60  82 N8G16     29.92S
RUTLAND*       MOSUNNY   64  55  72 N13       29.91S
SPRINGFIELD    SUNNY     66  57  72 VRB3      29.90F
HIGHGATE*      PTSUNNY   64  55  73 N6        29.93S
NEWPORT*       PTSUNNY   62  55  78 W9        29.93S
BENNINGTON     PTSUNNY   65  59  81 VRB3      29.92F
SUTTON*          N/A     59 N/A N/A MISG        N/A
GALLUP MILLS*    N/A      0 N/A N/A MISG        N/A
UNION VILLAGE*   N/A     66 N/A N/A MISG        N/A
MT. MANSFIELD*   N/A     48 N/A N/A NW12        N/A

_____LAKE CHAMPLAIN_____


CITY           SKY/WX    TMP DP  RH WIND       PRES   REMARKS
BURTON ISLAND*   N/A     64  59  82 NW2         N/A
COLCHESTER RF*   N/A     64  55  72 N16         N/A
DIAMOND ISL*     N/A     64  55  72 NW12        N/A

$$

NYZ007-026>031-035-052-083-281400-
_____NORTHERN NEW YORK_____


CITY           SKY/WX    TMP DP  RH WIND       PRES   REMARKS
PLATTSBURGH    CLOUDY    65  54  67 NW8       29.93S
SARANAC LAKE   CLOUDY    59  52  77 VRB5      29.96S
MASSENA        CLOUDY    63  57  81 NW8       29.97S
OGDENSBURG*    PTSUNNY   64  57  77 N8        29.98S
POTSDAM*       CLOUDY    63  59  88 NW6       29.98R
PARISHVILLE*     N/A     61 N/A N/A NW5         N/A
WATERTOWN      CLOUDY    65  55  70 N9        29.98S
FT DRUM        CLOUDY    60  57  88 N8        29.98S
ALBANY         PTSUNNY   68  59  73 NW8       29.92S
GLENS FALLS    SUNNY     69  58  67 NW9       29.91S

$$
NHZ002-005-011-281400-
_____NEW HAMPSHIRE_____


CITY           SKY/WX    TMP DP  RH WIND       PRES   REMARKS
LEBANON        SUNNY     66  57  72 NW5       29.89S
KEENE          PTSUNNY   68  54  60 N5        29.89F
MT WASHINGTON  FOG       43  43 100 NW38G54     N/A  VSB 0
PLYMOUTH       FAIR      67  61  81 NW7       29.87F
WHITEFIELD     MOSUNNY   63  56  78 W5        29.90F

$$

_____REGIONAL QUEBEC LOCATIONS_____


CITY           SKY/WX    TMP DP  RH WIND       PRES   REMARKS
MONTREAL       PTSUNNY   63  54  72 NW6       29.94S
QUEBEC CITY    MOSUNNY   63  52  67 W7        29.86S
SHERBROOKE     PTSUNNY   61  54  77 NW10G17   29.90S

_____REGIONAL ONTARIO LOCATIONS_____


CITY           SKY/WX    TMP DP  RH WIND       PRES   REMARKS
OTTAWA         PTSUNNY   63  55  77 NW10      29.98S

______KEY______
VSB  - VISIBILITY IN MILES
WCI  - WIND CHILL INDEX
HX   - HEAT INDEX
$$



USA.gov is the U.S. government's official web portal to all federal, state and local government web resources and services.